Weather History for KJVW - December, 2014

Change the Weather History Date:

Sunday, December 21, 2014

  Actual Average Record
Temperature  
Mean Temperature 46 °F -  
Max Temperature 62 °F - - ()
Min Temperature 30 °F - - ()
Degree Days  
Heating Degree Days 19    
Moisture  
Dew Point 42 °F    
Average Humidity 85    
Maximum Humidity 88    
Minimum Humidity 80    
Precipitation  
Precipitation 0.00 in - - ()
Sea Level Pressure  
Sea Level Pressure 30.08 in    
Wind  
Wind Speed 3 mph (ESE)    
Max Wind Speed 15 mph    
Max Gust Speed 20 mph    
Visibility 7 miles    
Events Fog    
T = Trace of Precipitation, MM = Missing Value Source: NWS Daily Summary

Daily Weather History Graph

Daily Weather History Graph

Search for Another Location

Airport or City:

Trip Planner

Search our weather history database for the weather conditions in past years. The results will help you decide how hot, cold, wet, or windy it might be!

Date:

Astronomy

Dec. 21, 2014 Rise Set
Actual Time 6:58 AM CST 5:00 PM CST
Civil Twilight 6:31 AM CST 5:27 PM CST
Nautical Twilight 6:01 AM CST 5:58 PM CST
Astronomical Twilight 5:31 AM CST 6:28 PM CST
Moon 6:18 AM CST (12/21) 5:03 PM CST (12/21)
Length of Visible Light 10h 56m
Length of Day
10h 01m
Waning Crescent, 0% of the Moon is Illuminated
Dec 21
Waning Crescent
Dec 21
New
Dec 28
First Quarter
Jan 4
Full
Jan 13
Last Quarter

Hourly Weather History & Observations

Time (CST) Temp. Windchill Dew Point Humidity Pressure Visibility Wind Dir Wind Speed Gust Speed Precip Events Conditions
12:15 AM 35.6 °F - 32.0 °F 87% 30.20 in 0.5 mi North - - N/A Fog Fog
12:35 AM 35.6 °F - 32.0 °F 87% 30.20 in 1.0 mi North - - N/A   Clear
12:55 AM 33.8 °F - 30.2 °F 87% 30.20 in 1.2 mi North - - N/A   Clear
1:15 AM 32.0 °F - 28.4 °F 87% 30.19 in 3.0 mi North - - N/A   Clear
1:35 AM 32.0 °F - 28.4 °F 87% 30.19 in 3.0 mi Calm Calm - N/A   Clear
1:55 AM 32.0 °F - 28.4 °F 87% 30.18 in 1.2 mi Calm Calm - N/A   Clear
2:15 AM 33.8 °F - 28.4 °F 81% 30.18 in 4.0 mi North - - N/A   Haze
2:35 AM 32.0 °F - 28.4 °F 87% 30.18 in 3.0 mi North - - N/A   Clear
2:55 AM 32.0 °F - 28.4 °F 87% 30.18 in 1.5 mi North - - N/A   Clear
3:15 AM 32.0 °F - 28.4 °F 87% 30.17 in 2.5 mi Calm Calm - N/A   Haze
3:35 AM 32.0 °F - 28.4 °F 87% 30.16 in 4.0 mi Calm Calm - N/A   Haze
3:55 AM 32.0 °F - 28.4 °F 87% 30.16 in 1.2 mi Calm Calm - N/A   Clear
4:15 AM 32.0 °F - 26.6 °F 80% 30.16 in 3.0 mi Calm Calm - N/A   Haze
4:35 AM 32.0 °F - 28.4 °F 87% 30.16 in 5.0 mi Calm Calm - N/A   Clear
4:55 AM 32.0 °F - 28.4 °F 87% 30.15 in 4.0 mi Calm Calm - N/A   Clear
5:15 AM 32.0 °F - 26.6 °F 80% 30.16 in 4.0 mi Calm Calm - N/A   Clear
5:35 AM 32.0 °F - 26.6 °F 80% 30.15 in 5.0 mi Calm Calm - N/A   Clear
5:55 AM 32.0 °F - 26.6 °F 80% 30.16 in 6.0 mi Calm Calm - N/A   Clear
6:15 AM 30.2 °F - 26.6 °F 86% 30.16 in 9.0 mi Calm Calm - N/A   Clear
6:55 AM 32.0 °F - 26.6 °F 80% 30.16 in 4.0 mi Calm Calm - N/A   Clear
7:15 AM 32.0 °F - 26.6 °F 80% 30.15 in 3.0 mi Calm Calm - N/A   Haze
7:35 AM 32.0 °F - 26.6 °F 80% 30.15 in 6.0 mi North - - N/A   Clear
7:55 AM 32.0 °F - 28.4 °F 87% 30.16 in 8.0 mi North - - N/A   Clear
8:15 AM 37.4 °F - 32.0 °F 81% 30.16 in 9.0 mi Calm Calm - N/A   Clear
8:35 AM 39.2 °F - 35.6 °F 87% 30.16 in 8.0 mi Calm Calm - N/A   Clear
8:55 AM 42.8 °F 41.1 °F 37.4 °F 81% 30.16 in 10.0 mi East 3.5 mph - N/A   Clear
9:15 AM 44.6 °F 42.2 °F 41.0 °F 87% 30.16 in 10.0 mi East 4.6 mph - N/A   Clear
9:35 AM 48.2 °F - 44.6 °F 87% 30.16 in 9.0 mi East 4.6 mph - N/A   Clear
9:55 AM 50.0 °F - 46.4 °F 87% 30.16 in 10.0 mi ESE 3.5 mph - N/A   Clear
10:15 AM 51.8 °F - 48.2 °F 88% 30.15 in 10.0 mi Calm Calm - N/A   Clear
10:35 AM 55.4 °F - 50.0 °F 82% 30.14 in 10.0 mi East 4.6 mph - N/A   Clear
10:55 AM 55.4 °F - 50.0 °F 82% 30.13 in 10.0 mi ESE 5.8 mph - N/A   Clear
11:15 AM 57.2 °F - 53.6 °F 88% 30.11 in 10.0 mi ESE 6.9 mph - N/A   Clear
11:35 AM 59.0 °F - 53.6 °F 82% 30.10 in 10.0 mi ESE 6.9 mph - N/A   Clear
11:55 AM 59.0 °F - 53.6 °F 82% 30.09 in 10.0 mi SE 4.6 mph - N/A   Clear
12:15 PM 59.0 °F - 55.4 °F 88% 30.08 in 10.0 mi ESE 6.9 mph - N/A   Clear
12:35 PM 59.0 °F - 55.4 °F 88% 30.06 in 10.0 mi SE 3.5 mph - N/A   Clear
12:55 PM 59.0 °F - 55.4 °F 88% 30.05 in 10.0 mi Calm Calm - N/A   Clear
1:15 PM 60.8 °F - 57.2 °F 88% 30.04 in 10.0 mi East 3.5 mph - N/A   Clear
1:35 PM 62.6 °F - 57.2 °F 82% 30.03 in 10.0 mi South 3.5 mph - N/A   Clear
1:55 PM 62.6 °F - 57.2 °F 82% 30.03 in 10.0 mi ESE 4.6 mph - N/A   Clear
2:15 PM 62.6 °F - 57.2 °F 82% 30.01 in 10.0 mi South 6.9 mph - N/A   Clear
2:35 PM 62.6 °F - 57.2 °F 82% 30.00 in 10.0 mi SE 5.8 mph - N/A   Clear
2:55 PM 62.6 °F - 57.2 °F 82% 30.00 in 10.0 mi SSE 3.5 mph - N/A   Clear
3:15 PM 62.6 °F - 57.2 °F 82% 30.01 in 10.0 mi SE 5.8 mph - N/A   Clear
3:35 PM 62.6 °F - 57.2 °F 82% 30.00 in 10.0 mi SSE 4.6 mph - N/A   Clear
3:55 PM 60.8 °F - 55.4 °F 82% 30.00 in 10.0 mi ESE 5.8 mph - N/A   Clear
4:15 PM 59.0 °F - 55.4 °F 88% 29.99 in 10.0 mi ESE 4.6 mph - N/A   Clear
4:35 PM 57.2 °F - 53.6 °F 88% 29.99 in 10.0 mi ESE 5.8 mph - N/A   Clear
4:55 PM 53.6 °F - 48.2 °F 82% 29.99 in 10.0 mi ESE 5.8 mph - N/A   Clear
5:15 PM 50.0 °F - 46.4 °F 87% 30.00 in 10.0 mi North - - N/A   Clear
5:35 PM 50.0 °F - 44.6 °F 82% 30.00 in 10.0 mi North - - N/A   Clear
5:55 PM 50.0 °F - 46.4 °F 87% 29.99 in 10.0 mi ESE 4.6 mph - N/A   Clear
6:15 PM 48.2 °F - 42.8 °F 82% 30.00 in 10.0 mi North - - N/A   Clear
6:35 PM 46.4 °F - 41.0 °F 81% 30.00 in 10.0 mi North - - N/A   Clear
6:55 PM 44.6 °F - 39.2 °F 81% 30.00 in 10.0 mi North - - N/A   Clear
7:15 PM 46.4 °F 42.4 °F 41.0 °F 81% 29.99 in 10.0 mi ESE 8.1 mph - N/A   Clear
7:35 PM 48.2 °F - 44.6 °F 87% 29.99 in 8.0 mi SE 8.1 mph - N/A   Clear
7:55 PM 48.2 °F - 44.6 °F 87% 29.99 in 5.0 mi SE 15.0 mph 19.6 mph N/A   Haze
8:15 PM 48.2 °F - 44.6 °F 87% 29.99 in 4.0 mi SE 10.4 mph 17.3 mph N/A   Haze
8:35 PM 48.2 °F - 44.6 °F 87% 29.99 in 4.0 mi SE 5.8 mph - N/A   Haze
8:55 PM 48.2 °F - 44.6 °F 87% 29.99 in 4.0 mi ESE 6.9 mph - N/A   Haze
9:15 PM 48.2 °F - 44.6 °F 87% 29.98 in 5.0 mi ESE 8.1 mph - N/A   Haze
9:35 PM 48.2 °F - 44.6 °F 87% 29.97 in 5.0 mi ESE 6.9 mph - N/A   Overcast
9:55 PM 50.0 °F - 44.6 °F 82% 29.98 in 5.0 mi SE 5.8 mph - N/A   Haze
10:15 PM 50.0 °F - 44.6 °F 82% 29.96 in 5.0 mi ESE 9.2 mph - N/A   Haze
10:35 PM 50.0 °F - 46.4 °F 87% 29.97 in 5.0 mi SE 5.8 mph - N/A   Overcast
10:55 PM 50.0 °F - 46.4 °F 87% 29.96 in 5.0 mi ESE 8.1 mph - N/A   Mostly Cloudy
11:15 PM 50.0 °F - 46.4 °F 87% 29.95 in 5.0 mi ESE 8.1 mph - N/A   Haze
11:35 PM 50.0 °F - 46.4 °F 87% 29.93 in 5.0 mi SE 5.8 mph - N/A   Haze
11:55 PM 50.0 °F - 46.4 °F 87% 29.93 in 5.0 mi ESE 9.2 mph - N/A   Haze